SR2CPA-13 Weather Reports


time (UTC)temp
F
wind
direction
speed
knots
gust
knots
rain 1hr
in
rain 24hr
in
rain mn
in
humidity
%
barometer
mb
20260905211632 57 299 7.0 12.2 0.00 0.35 0.33 99
20260905210612 57 299 3.5 6.1 0.00 0.42 0.33 99
20260905205612 57 270 4.3 3.5 0.00 0.43 0.33 99
20260905204552 57 264 2.6 4.3 0.00 0.44 0.33 99
20260905203552 57 238 4.3 7.0 0.00 0.44 0.33 99
20260905202532 57 318 4.3 7.0 0.00 0.44 0.33 99
20260905201532 57 270 1.7 5.2 0.00 0.44 0.33 99
20260905200532 57 273 0.9 2.6 0.00 0.44 0.33 99
20260905195512 57 270 0.9 3.5 0.00 0.44 0.33 99
20260905194512 57 263 1.7 3.5 0.00 0.44 0.33 99
20260905193452 57 194 3.5 4.3 0.00 0.44 0.33 99
20260905192452 57 271 0.0 0.0 0.00 0.44 0.33 99
20260905191452 57 273 1.7 4.3 0.00 0.44 0.33 99
20260905190452 57 0 0.0 0.9 0.00 0.44 0.33 99
20260905185452 57 260 3.5 4.3 0.00 0.44 0.33 99
20260905184452 57 245 3.5 3.5 0.00 0.44 0.33 99
20260905183432 57 245 7.0 7.8 0.00 0.44 0.33 99
20260905182432 57 257 1.7 0.9 0.00 0.44 0.33 99
20260905181412 57 259 4.3 2.6 0.00 0.44 0.33 99
20260905180412 57 276 5.2 3.5 0.00 0.44 0.33 99
20260905175412 57 294 2.6 6.1 0.00 0.43 0.33 99
20260905174352 57 261 3.5 2.6 0.01 0.43 0.33 99
20260905173352 56 260 1.7 6.1 0.03 0.43 0.33 99
20260905171332 56 275 2.6 4.3 0.11 0.43 0.33 99
20260905170312 57 257 1.7 4.3 0.13 0.43 0.33 99
20260905165312 57 241 4.3 4.3 0.14 0.43 0.33 99
20260905164312 57 265 0.9 3.5 0.14 0.41 0.31 99
20260905163252 57 237 0.9 1.7 0.12 0.39 0.29 99
20260905161232 58 253 1.7 2.6 0.05 0.38 0.22 99
20260905160232 59 252 6.1 8.7 0.02 0.35 0.19 99
20260905155212 59 218 6.1 7.8 0.01 0.34 0.18 99
20260905154212 61 249 6.1 8.7 0.00 0.33 0.16 99
20260905152152 61 279 0.9 1.7 0.00 0.33 0.16 99
20260905150152 60 265 1.7 3.5 0.00 0.33 0.16 99
20260905145152 60 95 0.9 1.7 0.00 0.33 0.16 99
20260905144152 62 294 2.6 3.5 0.00 0.33 0.16 99
20260905143132 63 138 0.9 0.9 0.07 0.33 0.16 99
20260905142132 64 312 0.9 1.7 0.07 0.33 0.16 96
20260905141132 65 258 0.9 1.7 0.07 0.32 0.15 99
20260905140112 63 0 0.0 0.0 0.07 0.32 0.15 99
20260905135112 62 265 0.9 1.7 0.07 0.32 0.15 99
20260905134052 62 249 1.7 1.7 0.10 0.32 0.15 99
20260905133052 63 214 0.9 0.9 0.08 0.25 0.09 99
20260905132032 64 273 0.9 2.6 0.08 0.24 0.08 99
20260905131032 65 291 0.9 0.9 0.08 0.24 0.08 99
20260905130032 64 0 0.0 0.0 0.08 0.25 0.08 99
20260905125012 64 0 0.0 0.0 0.08 0.26 0.08 99
20260905123952 63 0 0.0 1.7 0.03 0.22 0.03 99
20260905122952 64 0 0.0 0.0 0.00 0.19 0.00 88
20260905121952 64 142 0.9 0.9 0.00 0.19 0.00 85
20260905120952 66 289 8.7 13.9 0.00 0.20 0.00 73
20260905115952 69 253 7.0 10.4 0.00 2.56 0.00 68
20260905114952 69 321 4.3 5.2 0.00 2.56 0.00 68
20260905112932 68 256 3.5 1.7 0.00 2.57 0.00 67
20260905111912 68 241 3.5 7.8 0.00 2.59 0.00 71
20260905110912 69 307 3.5 6.1 0.00 2.60 0.00 69
20260905105852 69 296 8.7 11.3 0.00 2.60 0.00 71
20260905104852 69 265 1.7 3.5 0.00 2.60 0.00 72
20260905103832 66 275 4.3 7.8 0.00 2.60 0.00 76
20260905102832 66 278 0.9 1.7 0.00 2.60 0.00 80
20260905101832 66 234 3.5 4.3 0.00 2.60 0.00 78
20260905095832 66 278 3.5 4.3 0.00 2.60 0.00 76
20260905094832 65 237 8.7 10.4 0.00 2.60 0.00 78
20260905093812 67 258 4.3 8.7 0.00 2.60 0.00 76
20260905092812 67 248 3.5 3.5 0.00 2.60 0.00 74
20260905091812 67 303 0.9 2.6 0.00 2.60 0.00 79
20260905090811 66 246 2.6 3.5 0.00 2.60 0.00 78
20260905085811 67 250 1.7 1.7 0.00 2.60 0.00 77
20260905084812 65 310 6.1 7.8 0.00 2.60 0.00 79
20260905082751 66 300 7.0 7.8 0.00 2.60 0.00 79
20260905081731 67 286 2.6 6.1 0.00 2.60 0.00 82
20260905080731 68 0 0.0 0.0 0.00 2.60 0.00 81
20260905075711 66 246 0.9 0.9 0.00 2.60 0.00 83
20260905074711 66 275 0.0 0.0 0.00 2.60 0.00 85
20260905073651 65 319 5.2 3.5 0.00 2.60 0.00 84
20260905072651 66 238 2.6 2.6 0.00 2.60 0.00 85
20260905071631 65 277 4.3 5.2 0.00 2.60 0.00 89
20260905070631 64 259 7.8 7.8 0.00 2.60 0.00 91
20260905065611 63 8 5.2 10.4 0.00 2.60 0.00 98
20260905064611 62 249 1.7 3.5 0.00 2.60 0.00 99
20260905063551 62 281 5.2 7.8 0.00 2.60 0.00 99
20260905062551 63 271 2.6 3.5 0.00 2.60 0.00 99
20260905060531 62 266 7.0 4.3 0.00 2.61 0.00 99
20260905055531 61 235 3.5 11.3 0.00 2.61 0.00 99
20260905054511 60 264 5.2 6.1 0.00 2.61 0.00 99
20260905053511 59 240 4.3 6.1 0.00 2.61 0.00 99
20260905052451 59 270 6.1 9.6 0.00 2.61 0.00 99
20260905051451 59 243 4.3 6.1 0.00 2.61 0.00 99
20260905050431 59 280 5.2 7.0 0.00 2.61 0.00 99
20260905044431 58 265 3.5 7.0 0.00 2.61 0.00 99
20260905043411 58 298 5.2 5.2 0.00 2.61 0.00 99
20260905042411 58 271 3.5 4.3 0.00 2.61 0.00 99
20260905041351 58 287 4.3 6.1 0.00 2.61 0.00 99
20260905040351 58 207 4.3 7.8 0.00 2.61 0.00 99
20260905035331 58 274 1.7 4.3 0.00 2.61 0.00 99
20260905034331 58 318 3.5 6.1 0.00 2.61 0.00 99
20260905033311 59 266 2.6 3.5 0.00 2.61 0.00 99
20260905032311 59 299 3.5 3.5 0.00 2.61 0.00 99
20260905031311 59 251 1.7 4.3 0.00 2.61 0.00 99
20260905030251 59 241 4.3 4.3 0.00 2.61 0.00 99
20260905025251 59 236 4.3 8.7 0.00 2.61 0.00 99
20260905023231 59 266 2.6 3.5 0.00 2.61 0.00 99
20260905022211 59 311 6.1 9.6 0.00 2.61 0.00 99
20260905021211 59 285 2.6 5.2 0.00 2.61 0.00 99
20260905020211 59 230 4.3 5.2 0.00 2.61 0.00 99
20260905015151 59 270 4.3 6.1 0.00 2.61 0.00 99
20260905014151 59 8 3.5 7.0 0.00 2.61 0.00 99
20260905012131 59 227 0.9 1.7 0.00 2.61 0.00 99
20260905011131 60 249 0.9 0.9 0.00 2.61 0.00 99
20260905010131 60 308 0.0 1.7 0.00 2.61 0.00 99
20260905005131 60 223 1.7 3.5 0.00 2.61 0.00 99
20260905004131 60 60 0.9 0.9 0.00 2.61 0.00 99
20260905003111 60 242 0.9 3.5 0.00 2.61 0.00 99
20260905002111 60 227 0.0 0.9 0.00 2.61 0.00 99
20260905001051 61 162 1.7 3.5 0.00 2.61 0.00 99
20260905000051 61 222 0.9 1.7 0.00 2.61 0.00 99
20260904235031 61 244 0.0 0.0 0.00 2.61 0.00 99
20260904234031 61 286 0.9 1.7 0.00 2.61 0.00 99
20260904233031 61 258 2.6 0.0 0.00 2.61 0.00 99
20260904232010 61 264 0.9 0.9 0.00 2.61 0.00 99
20260904231010 61 262 2.6 0.9 0.00 2.61 0.00 99
20260904230010 61 282 2.6 2.6 0.00 2.61 0.00 99
20260904225011 62 212 4.3 6.1 0.00 2.61 0.00 99
20260904224010 62 229 2.6 2.6 0.00 2.61 0.00 99
20260904221950 63 263 2.6 3.5 0.01 2.61 0.00 99
20260904220950 63 292 4.3 6.1 0.08 2.61 0.00 99
20260904215930 63 248 2.6 3.5 0.09 2.61 2.61 99
20260904214930 63 226 0.9 0.0 0.10 2.61 2.61 99
20260904213910 63 280 0.0 0.9 0.10 2.61 2.61 99
20260904212910 63 261 0.9 3.5 0.10 2.61 2.61 99